HULIANWANG DIGUI-155

导读 | 豆包AI

HULIANWANG DIGUI-155(NORAD编号68129)是中国国网星座的组网卫星之一,该星座由136颗卫星组成,主要服务于卫星互联网通信。该卫星拥有标准的NORAD跟踪编号,被纳入北美防空司令部空间监视目录,可进行常规轨道监测。它运行在近地轨道,轨道参数稳定,具备典型低轨通信卫星特征,与其他国网卫星共同构建覆盖全球的宽带互联网星座系统,支持天地一体化网络通信服务,目前处于在轨正常运行状态。

基本信息
目录编号:
68129
目录名称:
HULIANWANG DIGUI-155
国际标识:
2026-047A
轨道中心:
EARTH
卫星名称:
HULIANWANG DIGUI-155
卫星全名:
HULIANWANG DIGUI-155
卫星状态:
在轨 (已飞行34 天)
发射日期:
2026-03-12 UTC
国别 :
中国 (CN)
星等 :
--
轨道信息
数据来源 国际轨道数据
星历时间: 2026-04-15T01:10:01+0800
13小时前
查看轨道信息
半长轴: 7392.363km
偏心率: 0.0000448
轨道倾角: 50.005°
近地点辐角 20.907°
升交点赤经 286.692°
平近点角 339.184°
近地点: 1013.894km
远地点: 1014.558km
周期: 105.423分钟
每日圈数: 13.659281
详细信息
使用方式:
暂无
2D轨道图
3D轨道图
轨道高度分析图
轨道倾角分析图
轨道综合分析图
查看轨道综合分析图